Location: Meanaryar
(48.4161°N, 4.7315°W)
Time: 15:09:31
(UTC+00:00)

Cosmos 1092 Rocket - Pass Details

Date: 18 January 2021
Orbit: 954 x 995 km, 83.0° (Epoch: 01 March)

Event Time Altitude Azimuth Distance (km) Brightness Sun altitude
Rises 19:32:04 0° 185° (S) 3,660 7.1 -25.3°
Reaches altitude 10° 19:34:35 10° 184° (S) 2,711 6.4 -25.8°
Maximum altitude 19:40:47 85° 98° (E) 976 3.8 -26.8°
Drops below altitude 10° 19:47:00 10° 10° (N) 2,704 6.2 -27.8°
Sets 19:49:29 0° 10° (N) 3,651 6.9 -28.2°
